Location: Bruderhein
(53.8035°N, 112.9265°W)
Time: 20:18:11
(UTC+00:00)

SEEDS - Pass Details

Date: 04 April 2023
Orbit: 568 x 587 km, 97.7° (Epoch: 08 June)

Event Time Altitude Azimuth Distance (km) Brightness Sun altitude
Rises 11:04:12 0° 20° (NNE) 2,843 ? -16.2°
Reaches altitude 10° 11:06:31 10° 28° (NNE) 1,937 ? -15.9°
Maximum altitude 11:10:26 36° 97° (E) 942 ? -15.4°
Drops below altitude 10° 11:14:18 10° 165° (SSE) 1,920 ? -15.0°
Sets 11:16:35 0° 173° (S) 2,815 ? -14.7°
Enters shadow 11:16:37 - 174° (S) 2,825 ? -14.7°
